Weather History for St. Francis, KS

Change the Weather History Date:

Wednesday, May 15, 2013

  Actual Average Record
Temperature  
Mean Temperature 72 °F -  
Max Temperature 86 °F 77 °F 86 °F (2013)
Min Temperature 59 °F 45 °F 35 °F (2014)
Cooling Degree Days 8    
Growing Degree Days 22 (Base 50)    
Moisture  
Dew Point 41 °F    
Average Humidity 34    
Maximum Humidity 62    
Minimum Humidity 17    
Precipitation  
Precipitation 0.00 in - - ()
Sea Level Pressure  
Sea Level Pressure 29.86 in    
Wind  
Wind Speed 7 mph (NE)    
Max Wind Speed 18 mph    
Max Gust Speed 26 mph    
Visibility 10 miles    
Events      
Averages and records for this station are not official NWS values.
T = Trace of Precipitation, MM = Missing Value Source: NWS Daily Summary

Daily Weather History Graph

Daily Weather History Graph

Search for Another Location

Airport:

Trip Planner

Search our weather history database for the weather conditions in past years. The results will help you decide how hot, cold, wet, or windy it might be!

Date:

Astronomy

May. 15, 2013 Rise Set
Actual Time 6:32 AM CDT 8:55 PM CDT
Civil Twilight 6:01 AM CDT 9:25 PM CDT
Nautical Twilight 5:24 AM CDT 10:03 PM CDT
Astronomical Twilight 4:42 AM CDT 10:45 PM CDT
Moon 11:09 AM CDT (5/15) 12:43 AM CDT (5/15)
Length of Visible Light 15h 24m
Length of Day
14h 23m
Waxing Crescent, 27% of the Moon is Illuminated
May 15
Waxing Crescent
May 17
First Quarter
May 24
Full
May 31
Last Quarter
Jun 8
New

Hourly Weather History & Observations

Time (CDT) Temp. Dew Point Humidity Pressure Visibility Wind Dir Wind Speed Gust Speed Precip Events Conditions
12:15 AM 79.0 °F 34.9 °F 20% 29.85 in 10.0 mi Calm Calm - N/A   Clear
12:35 AM 78.8 °F 34.9 °F 20% 29.86 in 10.0 mi Calm Calm - N/A   Clear
12:55 AM 78.8 °F 34.2 °F 20% 29.86 in 10.0 mi Calm Calm - N/A   Clear
1:15 AM 74.1 °F 37.4 °F 26% 29.86 in 10.0 mi NE 4.6 mph - N/A   Clear
1:35 AM 74.5 °F 37.8 °F 26% 29.87 in 10.0 mi NE 3.5 mph - N/A   Clear
1:55 AM 72.3 °F 38.8 °F 30% 29.87 in 10.0 mi East 4.6 mph - N/A   Clear
2:15 AM 69.1 °F 42.1 °F 38% 29.87 in 10.0 mi SE 6.9 mph - N/A   Clear
2:35 AM 67.5 °F 43.5 °F 42% 29.87 in 10.0 mi East 4.6 mph - N/A   Clear
2:55 AM 68.0 °F 43.0 °F 40% 29.86 in 10.0 mi ENE 4.6 mph - N/A   Clear
3:15 AM 65.8 °F 43.7 °F 45% 29.86 in 10.0 mi SSE 6.9 mph - N/A   Clear
3:35 AM 70.3 °F 42.3 °F 36% 29.85 in 10.0 mi WNW 3.5 mph - N/A   Clear
3:55 AM 68.7 °F 43.2 °F 40% 29.84 in 10.0 mi WNW 6.9 mph - N/A   Mostly Cloudy
4:15 AM 66.2 °F 44.6 °F 46% 29.84 in 10.0 mi NW 4.6 mph - N/A   Scattered Clouds
4:35 AM 64.6 °F 45.7 °F 50% 29.84 in 10.0 mi NNE 8.1 mph - N/A   Clear
4:55 AM 65.8 °F 44.8 °F 47% 29.84 in 10.0 mi Calm Calm - N/A   Clear
5:15 AM 63.0 °F 45.1 °F 52% 29.86 in 10.0 mi NE 3.5 mph - N/A   Clear
5:35 AM 64.0 °F 44.4 °F 49% 29.86 in 10.0 mi NE 4.6 mph - N/A   Clear
6:15 AM 59.5 °F 45.9 °F 61% 29.86 in 10.0 mi North 5.8 mph - N/A   Clear
6:35 AM 59.5 °F 46.4 °F 62% 29.86 in 10.0 mi NE 6.9 mph - N/A   Clear
6:55 AM 59.9 °F 45.9 °F 60% 29.87 in 10.0 mi NE 3.5 mph - N/A   Clear
7:15 AM 60.3 °F 45.7 °F 59% 29.87 in 10.0 mi NE 4.6 mph - N/A   Clear
7:35 AM 61.0 °F 45.1 °F 56% 29.87 in 10.0 mi ENE 6.9 mph - N/A   Clear
7:55 AM 61.9 °F 43.7 °F 51% 29.88 in 10.0 mi ENE 8.1 mph - N/A   Clear
8:15 AM 64.0 °F 41.9 °F 44% 29.88 in 10.0 mi ENE 9.2 mph - N/A   Clear
8:35 AM 66.4 °F 40.6 °F 39% 29.88 in 10.0 mi ENE 5.8 mph - N/A   Clear
8:55 AM 68.0 °F 41.2 °F 38% 29.88 in 10.0 mi NE 9.2 mph - N/A   Clear
9:15 AM 70.3 °F 39.9 °F 33% 29.89 in 10.0 mi NE 9.2 mph - N/A   Clear
9:35 AM 71.8 °F 39.4 °F 31% 29.89 in 10.0 mi NE 11.5 mph - N/A   Clear
9:55 AM 73.9 °F 38.8 °F 28% 29.89 in 10.0 mi NE 10.4 mph - N/A   Clear
10:15 AM 76.1 °F 38.5 °F 26% 29.89 in 10.0 mi NE 9.2 mph - N/A   Clear
10:35 AM 75.9 °F 38.5 °F 26% 29.90 in 10.0 mi NE 11.5 mph - N/A   Clear
10:55 AM 73.9 °F 38.5 °F 28% 29.91 in 10.0 mi NNE 13.8 mph - N/A   Clear
11:15 AM 73.4 °F 37.2 °F 27% 29.92 in 10.0 mi NNE 15.0 mph 23.0 mph N/A   Clear
11:35 AM 72.7 °F 36.5 °F 27% 29.92 in 10.0 mi NNE 15.0 mph 19.6 mph N/A   Scattered Clouds
11:55 AM 73.2 °F 36.5 °F 26% 29.92 in 10.0 mi NE 13.8 mph - N/A   Scattered Clouds
12:15 PM 76.5 °F 36.9 °F 24% 29.92 in 10.0 mi NE 12.7 mph - N/A   Scattered Clouds
12:35 PM 78.6 °F 37.4 °F 23% 29.91 in 10.0 mi NE 17.3 mph - N/A   Scattered Clouds
12:55 PM 76.3 °F 37.9 °F 25% 29.91 in 10.0 mi NE 15.0 mph 21.9 mph N/A   Clear
1:15 PM 77.4 °F 38.1 °F 24% 29.91 in 10.0 mi ENE 13.8 mph 21.9 mph N/A   Clear
1:35 PM 81.0 °F 38.1 °F 22% 29.90 in 10.0 mi ENE 15.0 mph 26.5 mph N/A   Clear
1:55 PM 80.8 °F 38.3 °F 22% 29.89 in 10.0 mi NNE 15.0 mph 21.9 mph N/A   Clear
2:15 PM 83.7 °F 38.5 °F 20% 29.89 in 10.0 mi NE 17.3 mph 25.3 mph N/A   Clear
2:35 PM 85.1 °F 37.8 °F 19% 29.88 in 10.0 mi NE 16.1 mph 21.9 mph N/A   Clear
2:55 PM 83.3 °F 38.7 °F 20% 29.88 in 10.0 mi ENE 13.8 mph 21.9 mph N/A   Clear
3:15 PM 82.6 °F 38.3 °F 21% 29.87 in 10.0 mi ENE 11.5 mph - N/A   Clear
3:35 PM 85.3 °F 38.3 °F 19% 29.86 in 10.0 mi East 15.0 mph 21.9 mph N/A   Clear
3:55 PM 86.5 °F 37.8 °F 18% 29.86 in 10.0 mi ENE 12.7 mph 20.7 mph N/A   Clear
4:15 PM 85.6 °F 38.1 °F 19% 29.85 in 10.0 mi East 18.4 mph 21.9 mph N/A   Clear
4:35 PM 86.0 °F 37.9 °F 18% 29.84 in 10.0 mi East 10.4 mph 18.4 mph N/A   Clear
4:55 PM 86.0 °F 36.9 °F 17% 29.83 in 10.0 mi East 10.4 mph - N/A   Clear
5:15 PM 86.0 °F 38.8 °F 19% 29.82 in 10.0 mi East 13.8 mph - N/A   Clear
5:35 PM 86.7 °F 38.3 °F 18% 29.82 in 10.0 mi East 13.8 mph 19.6 mph N/A   Clear
5:55 PM 84.9 °F 37.9 °F 19% 29.81 in 10.0 mi East 12.7 mph - N/A   Clear
6:15 PM 86.0 °F 36.5 °F 17% 29.81 in 10.0 mi ESE 11.5 mph - N/A   Clear
6:35 PM 86.7 °F 37.4 °F 17% 29.81 in 10.0 mi East 11.5 mph - N/A   Clear
6:55 PM 86.0 °F 39.2 °F 19% 29.81 in 10.0 mi East 12.7 mph 19.6 mph N/A   Clear
7:15 PM 84.7 °F 40.3 °F 21% 29.80 in 10.0 mi ENE 15.0 mph - N/A   Clear
7:35 PM 81.9 °F 42.6 °F 25% 29.80 in 10.0 mi NE 9.2 mph - N/A   Clear
7:55 PM 78.8 °F 43.2 °F 28% 29.81 in 10.0 mi ENE 9.2 mph - N/A   Clear
8:15 PM 76.1 °F 43.7 °F 31% 29.82 in 10.0 mi ENE 5.8 mph - N/A   Clear
8:35 PM 73.6 °F 45.5 °F 37% 29.83 in 7.0 mi East 4.6 mph - N/A   Clear
8:55 PM 72.5 °F 47.3 °F 41% 29.83 in 10.0 mi ENE 5.8 mph - N/A   Clear
9:15 PM 70.3 °F 47.5 °F 44% 29.84 in 10.0 mi NNE 4.6 mph - N/A   Clear
9:35 PM 68.9 °F 46.9 °F 45% 29.84 in 10.0 mi NNE 5.8 mph - N/A   Clear
9:55 PM 68.2 °F 47.3 °F 47% 29.84 in 10.0 mi NNE 4.6 mph - N/A   Clear
10:15 PM 65.8 °F 47.3 °F 51% 29.84 in 10.0 mi NNE 5.8 mph - N/A   Clear
10:35 PM 66.2 °F 48.2 °F 52% 29.85 in 10.0 mi NE 6.9 mph - N/A   Clear
10:55 PM 65.1 °F 50.0 °F 58% 29.85 in 10.0 mi NE 5.8 mph - N/A   Clear
11:15 PM 67.1 °F 50.4 °F 55% 29.85 in 10.0 mi East 5.8 mph - N/A   Clear
11:35 PM 66.7 °F 50.9 °F 57% 29.86 in 10.0 mi Calm Calm - N/A   Clear
11:55 PM 66.4 °F 50.5 °F 57% 29.86 in 10.0 mi Calm Calm - N/A   Clear